User: anonymous   Login
Location: Unspecified
(0.0000°N, 0.0000°E)
Time: 23:22:01
(UTC+02:00)
Language:

Ariane H10 - Orbit

View from above orbital plane
View from above orbital plane
View from above satellite
View from above satellite

Ground track
Ground track

The orbit data is extracted from the following two-line orbital elements,

1 19622U 88098B   16181.67939541  .00001634  00000-0  53649-3 0  9998
2 19622   3.8219  37.7552 6407200 145.5872 280.4432  3.42948289292178
Epoch (UTC): 29 June 2016 16:18:19
Eccentricity: 0.6407200
inclination: 3.8219°
perigee height: 295 km
apogee height: 24097 km
right ascension of ascending node: 37.7552°
argument of perigee: 145.5872°
revolutions per day: 3.42948289
mean anomaly at epoch: 280.4432°
orbit number at epoch: 29217

The dashed part of the orbit path shows where the satellite is in the earth's shadow,  

DLR